Tracking 21676 objects as of 29-Oct-2020
HD Live streaming from Space Station
objects crossing your sky now

RADUGA 7

Track RADUGA 7 now!
RADUGA 7 is classified as:


NORAD ID: 12003
Int'l Code: 1980-081A
Perigee: 35,754.4 km
Apogee: 35,839.1 km
Inclination: 10.8 °
Period: 1,436.3 minutes
Semi major axis: 42167 km
RCS: 7.9432 m2 (large)
Launch date: October 5, 1980
Source: Commonwealth of Independent States (former USSR) (CIS)
Launch site: TYURATAM MISSILE AND SPACE COMPLEX (TTMTR)
aabbcc
Your satellite tracking list
Your tracking list is empty




NASA's NSSDC Master Catalog

Two Line Element Set (TLE):
1 12003U 80081A   20302.24641424 +.00000048 +00000-0 +00000-0 0  9999
2 12003 010.7505 311.1109 0010036 259.9089 099.8699 01.00261022102663
Source of the keplerian elements: AFSPC